RADUGA 27 [-]

Last updated on Wed Jun 28 2023 00:02:57 GMT+0000 (Coordinated Universal Time)

1 21132U 91014A 23177.74596963 -.00000277 00000+0 00000+0 0 9998 2 21132 14.3538 345.2975 0004902 115.6437 174.9029 1.00371232118418
UTC large
Height (km)
Speed (km/s)
/
Latitude / Longitude
Inclination (degrees)
Orbital Period (minutes)
Azimuth
Elevation
Range (km)
Doppler Factor

Next 0 passes for location: London (51.5072 / 0.1276)

Sorry there are no passes over London.
RADUGA 27 [-]